Bigfork, MN

7:01 AM CST on December 06, 2016 (GMT -0600)
Bigfork Municipal

Weather History for KFOZ - February, 2013

Change the Weather History Date:

Thursday, February 28, 2013

  Actual Average (KGPZ) Record (KGPZ)
Temperature  
Mean Temperature 22 °F -  
Max Temperature 28 °F 31 °F 50 °F (1932)
Min Temperature 17 °F 9 °F -32 °F (1962)
Degree Days  
Heating Degree Days 42    
Moisture  
Dew Point 12 °F    
Average Humidity 63    
Maximum Humidity 80    
Minimum Humidity 47    
Precipitation  
Precipitation 0.00 in - - ()
Sea Level Pressure  
Sea Level Pressure 30.22 in    
Wind  
Wind Speed 7 mph (NNE)    
Max Wind Speed 13 mph    
Max Gust Speed 16 mph    
Visibility 10 miles    
Events      
Averages and records for this station are not official NWS values.
T = Trace of Precipitation, MM = Missing Value Source: NWS Daily Summary

Daily Weather History Graph

Daily Weather History Graph

Search for Another Location

Airport or City:

Trip Planner

Search our weather history database for the weather conditions in past years. The results will help you decide how hot, cold, wet, or windy it might be!

Date:

Astronomy

Feb. 28, 2013 Rise Set
Actual Time 6:56 AM CST 5:58 PM CST
Civil Twilight 6:25 AM CST 6:29 PM CST
Nautical Twilight 5:49 AM CST 7:05 PM CST
Astronomical Twilight 5:14 AM CST 7:40 PM CST
Moon 9:45 PM CST (2/28) 7:49 AM CST (2/28)
Length of Visible Light 12h 03m
Length of Day
11h 01m
Waning Gibbous, 90% of the Moon is Illuminated
Feb 28
Waning Gibbous
Mar 4
Last Quarter
Mar 11
New
Mar 19
First Quarter
Mar 27
Full

Hourly Weather History & Observations

Time (CST) Temp. Windchill Dew Point Humidity Pressure Visibility Wind Dir Wind Speed Gust Speed Precip Events Conditions
12:13 AM 26.6 °F 18.2 °F 19.4 °F 74% 30.12 in 10.0 mi NNE 8.1 mph - N/A   Overcast
1:13 AM 26.6 °F 20.0 °F 19.4 °F 74% 30.12 in 10.0 mi North 5.8 mph - N/A   Overcast
1:33 AM 26.6 °F 18.2 °F 19.4 °F 74% 30.13 in 10.0 mi NNE 8.1 mph - N/A   Overcast
1:53 AM 26.6 °F 20.0 °F 19.4 °F 74% 30.13 in 10.0 mi NNE 5.8 mph - N/A   Overcast
2:13 AM 24.8 °F 15.3 °F 19.4 °F 80% 30.13 in 10.0 mi North 9.2 mph - N/A   Overcast
2:33 AM 24.8 °F 16.1 °F 17.6 °F 74% 30.13 in 10.0 mi North 8.1 mph - N/A   Overcast
2:53 AM 24.8 °F 15.3 °F 17.6 °F 74% 30.14 in 10.0 mi NNE 9.2 mph 16.1 mph N/A   Overcast
3:13 AM 24.8 °F 16.9 °F 17.6 °F 74% 30.14 in 10.0 mi North 6.9 mph 16.1 mph N/A   Overcast
3:33 AM 24.8 °F 16.9 °F 17.6 °F 74% 30.15 in 10.0 mi North 6.9 mph - N/A   Overcast
3:53 AM 24.8 °F 15.3 °F 15.8 °F 69% 30.15 in 10.0 mi North 9.2 mph - N/A   Overcast
4:13 AM 23.0 °F 12.4 °F 15.8 °F 74% 30.16 in 10.0 mi North 10.4 mph - N/A   Overcast
4:33 AM 23.0 °F 12.4 °F 14.0 °F 68% 30.17 in 10.0 mi North 10.4 mph 16.1 mph N/A   Overcast
4:53 AM 21.2 °F 9.5 °F 12.2 °F 68% 30.17 in 10.0 mi NNE 11.5 mph - N/A   Overcast
5:13 AM 21.2 °F 10.9 °F 12.2 °F 68% 30.18 in 10.0 mi NE 9.2 mph - N/A   Overcast
5:33 AM 21.2 °F 10.1 °F 12.2 °F 68% 30.18 in 10.0 mi NNE 10.4 mph - N/A   Overcast
5:53 AM 21.2 °F 8.9 °F 12.2 °F 68% 30.18 in 10.0 mi NE 12.7 mph 16.1 mph N/A   Overcast
6:13 AM 19.4 °F 8.6 °F 12.2 °F 74% 30.19 in 10.0 mi NE 9.2 mph 16.1 mph N/A   Overcast
6:33 AM 19.4 °F 9.5 °F 12.2 °F 74% 30.20 in 10.0 mi NNE 8.1 mph - N/A   Overcast
6:53 AM 19.4 °F 10.4 °F 12.2 °F 74% 30.21 in 10.0 mi NNE 6.9 mph - N/A   Overcast
7:13 AM 19.4 °F 8.6 °F 12.2 °F 74% 30.21 in 10.0 mi NE 9.2 mph - N/A   Overcast
7:33 AM 19.4 °F 11.5 °F 12.2 °F 74% 30.21 in 10.0 mi NE 5.8 mph - N/A   Overcast
7:53 AM 19.4 °F 10.4 °F 12.2 °F 74% 30.21 in 10.0 mi NE 6.9 mph - N/A   Overcast
8:13 AM 19.4 °F 8.6 °F 12.2 °F 74% 30.21 in 10.0 mi NNE 9.2 mph - N/A   Overcast
8:33 AM 19.4 °F 8.6 °F 12.2 °F 74% 30.21 in 10.0 mi NNE 9.2 mph - N/A   Overcast
8:53 AM 21.2 °F 12.6 °F 12.2 °F 68% 30.22 in 10.0 mi NE 6.9 mph - N/A   Overcast
9:13 AM 21.2 °F 11.7 °F 12.2 °F 68% 30.22 in 10.0 mi NE 8.1 mph - N/A   Overcast
9:33 AM 21.2 °F 10.9 °F 12.2 °F 68% 30.22 in 10.0 mi NNE 9.2 mph - N/A   Overcast
9:53 AM 21.2 °F 11.7 °F 12.2 °F 68% 30.22 in 10.0 mi ENE 8.1 mph - N/A   Mostly Cloudy
10:13 AM 21.2 °F 9.5 °F 12.2 °F 68% 30.22 in 10.0 mi NNE 11.5 mph - N/A   Mostly Cloudy
10:33 AM 23.0 °F 13.9 °F 12.2 °F 63% 30.23 in 10.0 mi NE 8.1 mph - N/A   Scattered Clouds
10:53 AM 23.0 °F 13.1 °F 12.2 °F 63% 30.23 in 10.0 mi NNE 9.2 mph - N/A   Scattered Clouds
11:13 AM 23.0 °F 13.1 °F 12.2 °F 63% 30.23 in 10.0 mi NNE 9.2 mph - N/A   Clear
11:33 AM 24.8 °F 16.1 °F 12.2 °F 59% 30.23 in 10.0 mi NNE 8.1 mph - N/A   Clear
11:53 AM 24.8 °F 17.9 °F 12.2 °F 59% 30.23 in 10.0 mi NNE 5.8 mph - N/A   Clear
12:13 PM 26.6 °F 19.1 °F 12.2 °F 55% 30.22 in 10.0 mi ENE 6.9 mph - N/A   Clear
12:33 PM 26.6 °F - 12.2 °F 55% 30.22 in 10.0 mi Calm Calm - N/A   Clear
12:53 PM 28.4 °F 24.6 °F 12.2 °F 51% 30.22 in 10.0 mi NE 3.5 mph - N/A   Clear
1:13 PM 28.4 °F 22.2 °F 12.2 °F 51% 30.22 in 10.0 mi ENE 5.8 mph - N/A   Clear
1:33 PM 28.4 °F 22.2 °F 12.2 °F 51% 30.21 in 10.0 mi North 5.8 mph - N/A   Clear
1:53 PM 28.4 °F 22.2 °F 12.2 °F 51% 30.21 in 10.0 mi North 5.8 mph - N/A   Clear
2:13 PM 28.4 °F 19.1 °F 10.4 °F 47% 30.21 in 10.0 mi NE 10.4 mph - N/A   Clear
2:33 PM 28.4 °F 20.4 °F 10.4 °F 47% 30.21 in 10.0 mi NE 8.1 mph - N/A   Clear
2:53 PM 28.4 °F 22.2 °F 10.4 °F 47% 30.22 in 10.0 mi NNE 5.8 mph - N/A   Clear
3:13 PM 28.4 °F 21.2 °F 12.2 °F 51% 30.22 in 10.0 mi North 6.9 mph - N/A   Clear
3:33 PM 28.4 °F 19.7 °F 12.2 °F 51% 30.22 in 10.0 mi North 9.2 mph - N/A   Clear
3:53 PM 28.4 °F 21.2 °F 10.4 °F 47% 30.22 in 10.0 mi NNE 6.9 mph - N/A   Clear
4:13 PM 28.4 °F 20.4 °F 10.4 °F 47% 30.23 in 10.0 mi NE 8.1 mph - N/A   Clear
4:33 PM 28.4 °F 19.7 °F 10.4 °F 47% 30.23 in 10.0 mi NE 9.2 mph - N/A   Clear
4:53 PM 26.6 °F 17.5 °F 10.4 °F 51% 30.23 in 10.0 mi NE 9.2 mph - N/A   Clear
5:14 PM 26.6 °F 19.1 °F 10.4 °F 51% 30.24 in 10.0 mi NE 6.9 mph - N/A   Clear
5:33 PM 26.6 °F 20.0 °F 10.4 °F 51% 30.25 in 10.0 mi NNE 5.8 mph - N/A   Clear
6:13 PM 24.8 °F 16.9 °F 10.4 °F 54% 30.26 in 10.0 mi NE 6.9 mph - N/A   Clear
6:33 PM 24.8 °F 16.9 °F 10.4 °F 54% 30.26 in 10.0 mi NNE 6.9 mph - N/A   Clear
6:54 PM 24.8 °F 19.1 °F 10.4 °F 54% 30.27 in 10.0 mi NNE 4.6 mph - N/A   Clear
7:13 PM 24.8 °F 17.9 °F 8.6 °F 50% 30.27 in 10.0 mi NNE 5.8 mph - N/A   Clear
7:33 PM 23.0 °F 17.0 °F 8.6 °F 54% 30.27 in 10.0 mi NE 4.6 mph - N/A   Clear
7:53 PM 23.0 °F 17.0 °F 8.6 °F 54% 30.27 in 10.0 mi NE 4.6 mph - N/A   Clear
8:13 PM 23.0 °F 18.4 °F 8.6 °F 54% 30.28 in 10.0 mi NE 3.5 mph - N/A   Clear
8:53 PM 19.4 °F 14.3 °F 8.6 °F 63% 30.28 in 10.0 mi NNE 3.5 mph - N/A   Clear
9:13 PM 19.4 °F 12.8 °F 8.6 °F 63% 30.28 in 10.0 mi NNE 4.6 mph - N/A   Clear
9:33 PM 19.4 °F 12.8 °F 8.6 °F 63% 30.28 in 10.0 mi NE 4.6 mph - N/A   Clear
9:53 PM 19.4 °F 12.8 °F 8.6 °F 63% 30.28 in 10.0 mi NE 4.6 mph - N/A   Clear
10:13 PM 19.4 °F 14.3 °F 8.6 °F 63% 30.28 in 10.0 mi NE 3.5 mph - N/A   Clear
10:33 PM 19.4 °F 12.8 °F 8.6 °F 63% 30.28 in 10.0 mi NE 4.6 mph - N/A   Clear
10:53 PM 19.4 °F - 8.6 °F 63% 30.29 in 10.0 mi Calm Calm - N/A   Clear
11:13 PM 19.4 °F - 8.6 °F 63% 30.29 in 10.0 mi Calm Calm - N/A   Clear
11:33 PM 17.6 °F 12.3 °F 8.6 °F 68% 30.29 in 10.0 mi NE 3.5 mph - N/A   Clear
11:53 PM 17.6 °F 10.7 °F 6.8 °F 63% 30.29 in 10.0 mi ENE 4.6 mph - N/A   Clear